Location: Molveno
(46.1500°N, 10.9667°E)
Time: 07:55:44
(UTC+00:00)

Cosmos 1076 Rocket - Pass Details

Date: 05 July 2020
Orbit: 589 x 613 km, 82.5° (Epoch: 05 August)

Event Time Altitude Azimuth Distance (km) Brightness Sun altitude
Exits shadow 21:36:07 35° 152° (SSE) 972 4.0 -17.2°
Maximum altitude 21:37:37 55° 95° (E) 729 3.7 -17.3°
Drops below altitude 10° 21:41:48 10° 18° (NNE) 1,943 6.8 -17.6°
Sets 21:44:03 0° 14° (NNE) 2,847 7.8 -17.8°
